CST,Max TemperatureF,Mean TemperatureF,Min TemperatureF,Max Dew PointF,MeanDew PointF,Min DewpointF,Max Humidity, Mean Humidity, Min Humidity, Max Sea Level PressureIn, Mean Sea Level PressureIn, Min Sea Level PressureIn, Max VisibilityMiles, Mean VisibilityMiles, Min VisibilityMiles, Max Wind SpeedMPH, Mean Wind SpeedMPH, Max Gust SpeedMPH,PrecipitationIn, CloudCover, Events, WindDirDegrees
2012-12-1,77,66,55,59,56,54,100,77,44,30.15,30.09,30.05,10,8,3,17,9,22,0.00,2,,194
2012-12-2,73,62,51,61,58,52,100,82,53,30.18,30.11,30.06,10,8,0,16,8,23,0.00,2,Fog,188
2012-12-3,73,62,51,61,57,52,100,86,57,30.10,30.05,30.00,10,7,0,17,6,22,0.00,2,Fog,197
2012-12-4,69,56,44,54,42,32,100,66,30,30.35,30.24,30.09,10,7,0,18,6,24,0.00,3,Fog-Rain,19
2012-12-5,71,52,32,32,28,23,87,48,19,30.34,30.20,30.05,10,10,10,10,4,,0.00,0,,175
2012-12-6,77,56,35,37,34,28,81,44,22,30.04,29.92,29.84,10,10,10,17,6,23,0.00,0,,195
2012-12-7,75,56,37,52,42,34,93,68,34,29.94,29.88,29.82,10,10,7,10,2,,0.00,0,,111
2012-12-8,78,56,35,55,43,28,100,74,16,29.95,29.89,29.82,10,7,0,14,3,18,0.00,2,Fog-Rain-Snow,209
2012-12-9,77,60,42,61,44,28,100,69,19,30.08,29.92,29.84,10,6,0,21,6,28,0.00,3,Fog,318
2012-12-10,44,34,24,21,12,9,64,39,23,30.23,30.15,30.07,10,10,7,30,14,46,0.00,0,,2
2012-12-11,59,39,19,19,14,9,68,44,17,30.20,30.10,30.04,10,10,7,12,3,17,0.00,0,,280
2012-12-12,60,40,21,21,17,12,74,43,19,30.27,30.19,30.13,10,10,10,18,5,23,0.00,0,,189
2012-12-13,60,48,35,50,37,21,100,70,42,30.25,30.18,30.12,10,9,2,28,10,36,0.00,4,,185
2012-12-14,60,56,51,55,52,34,100,86,44,30.13,29.98,29.83,10,9,4,23,13,31,0.00,5,Rain,180
2012-12-15,69,53,37,37,33,30,81,49,28,30.04,29.97,29.91,10,10,10,14,4,20,0.00,0,,305
2012-12-16,71,56,42,36,31,21,70,43,16,29.98,29.91,29.82,10,10,10,22,5,30,0.00,0,,301
2012-12-17,71,52,33,32,26,19,81,45,14,30.06,29.99,29.92,10,10,10,16,7,25,0.00,0,,298
2012-12-18,80,55,30,28,21,18,65,38,10,29.98,29.88,29.80,10,10,10,15,3,22,0.00,0,,189
2012-12-19,77,60,44,55,38,10,94,50,15,30.12,29.81,29.69,10,9,3,31,10,44,0.00,0,,220
2012-12-20,51,36,19,18,7,1,48,30,14,30.52,30.42,30.14,10,10,4,23,13,36,0.00,0,,353
2012-12-21,57,37,17,9,4,1,58,30,12,30.48,30.40,30.30,10,10,10,16,4,21,0.00,0,,167
2012-12-22,60,44,28,41,25,5,81,47,28,30.31,30.20,30.10,10,10,10,22,6,30,0.00,0,,193
2012-12-23,73,52,32,41,36,32,100,60,25,30.10,30.03,29.96,10,10,10,9,2,16,0.00,0,,245
2012-12-24,73,50,28,39,30,23,87,51,19,30.02,29.89,29.72,10,10,10,17,3,23,0.00,0,,167
2012-12-25,55,42,28,41,24,14,76,49,26,30.24,29.94,29.67,10,9,5,33,11,46,0.00,0,,332
2012-12-26,44,34,24,18,16,14,64,51,34,30.27,30.14,30.00,10,10,10,18,8,24,0.00,0,,14
2012-12-27,55,42,30,25,22,18,69,50,29,29.99,29.87,29.78,10,10,10,20,8,25,0.00,0,,187
2012-12-28,51,40,28,27,20,16,75,51,28,30.24,30.03,29.83,10,10,10,21,6,28,0.00,0,,355
2012-12-29,50,36,23,18,14,12,68,45,24,30.47,30.35,30.24,10,10,10,9,3,,0.00,0,,137
2012-12-30,44,40,35,39,24,12,93,53,29,30.31,30.18,30.09,10,10,10,24,15,32,0.03,1,Rain,172
2012-12-31,62,52,41,45,38,32,93,70,32,30.10,30.02,29.96,10,10,10,22,11,32,0.00,0,Rain,220